{"data":{"norad_id":63211,"intl_designator":"2025-052B","name":"NUSHSAT1","alt_names":[],"object_type":"PAYLOAD","status":"ACTIVE","operator":null,"country":"SING","launch_date":"2025-03-15","launch_site_code":"AFWTR","launch_vehicle":null,"mission":null,"orbit_class":"UNKNOWN","rcs_meters":null,"size_class":null,"mass_kg":null,"dimensions":null,"purposes":[],"wikipedia_slug":null,"has_3d_model":false,"image_url":null,"decayed_at":null,"tle_current":{"epoch":"2026-05-25T04:26:54.322080Z","epoch_age_seconds":55877,"freshness":"FRESH","line1":"1 63211U 25052B   26145.18535095  .00020451  00000+0  60486-3 0  9999","line2":"2 63211  97.4007  42.4099 0004120 137.7707 222.3854 15.34937191 66617","mean_motion":15.34937191,"eccentricity":0.000412,"inclination_deg":97.4007,"raan_deg":42.4099,"arg_perigee_deg":137.7707,"mean_anomaly_deg":222.3854,"bstar":0.00060486,"rev_number":6661,"period_min":93.814913629257,"perigee_km":458.2892924682,"apogee_km":463.92482957448,"semimajor_km":6839.2440610213,"source":"CELESTRAK","updated_at":"2026-05-25T13:38:03.574469Z"}}}